This is the latest recevied weather packets stored in our database for station/object E70ARA-3. If no packets are shown the sender has not sent any weather packets the latest 10 day(s).
| Time | Temp. | Humidity | Pressure | Rain* | Wind** | Luminosity | Snow |
|---|---|---|---|---|---|---|---|
| 1777296466 | 26.67° C | 19% | 1027.6 hPa | - | - | - | - |
| 1777295566 | 27.78° C | 21% | 1027.8 hPa | - | - | - | - |
| 1777294666 | 27.78° C | 23% | 1028.1 hPa | - | - | - | - |
| 1777291965 | 26.67° C | 19% | 1028.7 hPa | - | - | - | - |
| 1777291065 | 27.78° C | 19% | 1028.9 hPa | - | - | - | - |
| 1777290165 | 27.22° C | 20% | 1029.1 hPa | - | - | - | - |
| 1777289265 | 26.67° C | 18% | 1029.4 hPa | - | - | - | - |
| 1777288364 | 28.33° C | 17% | 1029.6 hPa | - | - | - | - |
| 1777287464 | 27.78° C | 17% | 1029.8 hPa | - | - | - | - |
| 1777286564 | 27.78° C | 18% | 1030 hPa | - | - | - | - |
| 1777285664 | 27.78° C | 19% | 1030.2 hPa | - | - | - | - |
| 1777284763 | 27.78° C | 18% | 1030.4 hPa | - | - | - | - |
| 1777283863 | 28.33° C | 18% | 1030.8 hPa | - | - | - | - |
| 1777282963 | 28.33° C | 19% | 1031 hPa | - | - | - | - |
| 1777282059 | 27.22° C | 20% | 1031.4 hPa | - | - | - | - |
| 1777281159 | 26.11° C | 23% | 1031.7 hPa | - | - | - | - |
| 1777280259 | 27.22° C | 22% | 1031.9 hPa | - | - | - | - |
| 1777279358 | 26.11° C | 22% | 1032.1 hPa | - | - | - | - |
| 1777278457 | 26.11° C | 22% | 1032.3 hPa | - | - | - | - |
| 1777277557 | 25.56° C | 23% | 1032.5 hPa | - | - | - | - |
| 1777276657 | 25° C | 24% | 1032.5 hPa | - | - | - | - |
| 1777275760 | 23.89° C | 27% | 1032.8 hPa | - | - | - | - |
| 1777274860 | 22.78° C | 29% | 1032.9 hPa | - | - | - | - |
| 1777273960 | 22.22° C | 31% | 1033.2 hPa | - | - | - | - |
| 1777273060 | 20.56° C | 34% | 1033.3 hPa | - | - | - | - |
* Rain since midnight (hover to see other rain measurements)
** Current wind speed in m/s (hover to see current wind gust speed)